DW0427 Weather Reports


Display with metric or nautical units.
time (UTC)temp
F
wind
direction
speed
MPH
gust
MPH
rain 1hr
in
rain 24hr
in
rain mn
in
humidity
%
barometer
mb
20181117103742 52 137 10.0 16.0 0.00 0.01 0.01 92 1022.4
20181117103542 52 134 10.0 16.0 0.00 0.01 0.01 92 1022.4
20181117103342 52 136 10.0 16.0 0.00 0.01 0.01 93 1022.4
20181117103142 52 138 10.0 16.0 0.00 0.01 0.01 92 1022.4
20181117102942 52 143 11.0 18.0 0.00 0.01 0.01 92 1022.4
20181117102742 52 143 11.0 18.0 0.00 0.01 0.01 92 1022.4
20181117102542 52 145 11.0 18.0 0.00 0.01 0.01 92 1022.4
20181117102342 52 146 12.0 18.0 0.00 0.01 0.01 92 1022.3
20181117102142 52 145 12.0 18.0 0.00 0.01 0.01 92 1022.3
20181117101942 52 145 12.0 18.0 0.00 0.01 0.01 92 1022.3
20181117101742 52 147 12.0 18.0 0.00 0.01 0.01 92 1022.3
20181117101542 52 147 13.0 18.0 0.00 0.01 0.01 92 1022.3
20181117101342 52 149 13.0 18.0 0.00 0.01 0.01 92 1022.2
20181117101142 52 150 14.0 20.0 0.00 0.01 0.01 92 1022.1
20181117100942 52 148 14.0 22.0 0.00 0.01 0.01 92 1022.3
20181117100742 52 148 15.0 22.0 0.00 0.01 0.01 92 1022.2
20181117100543 52 148 15.0 22.0 0.00 0.01 0.01 92 1022.3
20181117100342 52 147 16.0 25.0 0.00 0.01 0.01 92 1022.3
20181117100142 52 147 16.0 25.0 0.00 0.01 0.01 92 1022.3
20181117095942 52 149 16.0 25.0 0.00 0.01 0.01 92 1022.3
20181117095742 52 148 15.0 25.0 0.00 0.01 0.01 92 1022.3
20181117095542 52 148 15.0 25.0 0.00 0.01 0.01 92 1022.3
20181117095342 52 148 14.0 25.0 0.00 0.01 0.01 92 1022.4
20181117095142 52 147 14.0 25.0 0.00 0.01 0.01 92 1022.3
20181117094942 52 144 14.0 24.0 0.00 0.01 0.01 92 1022.3
20181117094743 52 144 15.0 24.0 0.00 0.01 0.01 92 1022.3
20181117094543 52 145 15.0 24.0 0.00 0.01 0.01 92 1022.3
20181117094342 52 144 15.0 23.0 0.00 0.01 0.01 92 1022.3
20181117094142 52 143 15.0 24.0 0.00 0.01 0.01 92 1022.3
20181117093942 52 143 15.0 24.0 0.00 0.01 0.01 92 1022.3
20181117093743 52 142 15.0 24.0 0.00 0.01 0.01 92 1022.3
20181117093542 52 140 14.0 24.0 0.00 0.01 0.01 92 1022.3
20181117093342 52 138 14.0 24.0 0.00 0.01 0.01 93 1022.4
20181117093142 52 139 14.0 22.0 0.00 0.01 0.01 93 1022.3
20181117092943 52 140 13.0 22.0 0.00 0.01 0.01 93 1022.3
20181117092743 52 141 13.0 22.0 0.00 0.01 0.01 93 1022.4
20181117092543 52 142 13.0 22.0 0.00 0.01 0.01 93 1022.3
20181117092342 52 144 13.0 22.0 0.00 0.01 0.01 93 1022.3
20181117092142 52 144 13.0 22.0 0.00 0.01 0.01 93 1022.3
20181117091942 52 142 13.0 20.0 0.00 0.01 0.01 93 1022.3
20181117091743 52 143 14.0 21.0 0.00 0.01 0.01 93 1022.3
20181117091543 52 142 14.0 21.0 0.00 0.01 0.01 93 1022.3
20181117091343 52 141 14.0 24.0 0.00 0.01 0.01 93 1022.3
20181117091142 52 140 14.0 24.0 0.00 0.01 0.01 93 1022.4
20181117090942 52 138 14.0 24.0 0.00 0.01 0.01 93 1022.3
20181117090743 52 138 13.0 24.0 0.00 0.01 0.01 93 1022.3
20181117090543 52 138 13.0 24.0 0.00 0.01 0.01 93 1022.3
20181117090343 52 140 12.0 23.0 0.00 0.01 0.01 93 1022.3
20181117090143 52 141 12.0 23.0 0.00 0.01 0.01 93 1022.3
20181117085954 52 145 12.0 20.0 0.00 0.01 0.01 93 1022.2
20181117085743 52 145 12.0 21.0 0.00 0.01 0.01 93 1022.2
20181117085543 52 146 12.0 21.0 0.00 0.01 0.01 93 1022.2
20181117085343 52 145 12.0 21.0 0.00 0.01 0.01 93 1022.2
20181117085142 52 144 12.0 21.0 0.00 0.01 0.01 93 1022.2
20181117084942 52 141 12.0 21.0 0.00 0.01 0.01 93 1022.1
20181117084743 52 139 13.0 18.0 0.00 0.01 0.01 93 1022.1
20181117084543 52 139 13.0 18.0 0.00 0.01 0.01 93 1022.1
20181117084343 52 139 13.0 18.0 0.00 0.01 0.01 93 1022.2
20181117084143 52 141 13.0 22.0 0.00 0.01 0.01 93 1022.0
20181117083942 52 142 13.0 22.0 0.00 0.01 0.01 93 1021.9
20181117083742 52 143 13.0 22.0 0.00 0.01 0.01 93 1022.0
20181117083542 52 143 12.0 22.0 0.00 0.01 0.01 93 1021.8
20181117083343 52 142 12.0 22.0 0.00 0.01 0.01 93 1021.7
20181117083143 52 142 12.0 22.0 0.00 0.01 0.01 93 1021.8
20181117082943 52 142 12.0 16.0 0.00 0.01 0.01 93 1021.8
20181117082743 52 141 12.0 16.0 0.00 0.01 0.01 93 1021.8
20181117082543 53 142 12.0 18.0 0.00 0.01 0.01 93 1021.8
20181117082343 53 142 12.0 18.0 0.00 0.01 0.01 93 1021.8
20181117082143 53 142 12.0 21.0 0.00 0.01 0.01 93 1021.8
20181117081943 53 145 13.0 21.0 0.00 0.01 0.01 93 1021.7
20181117081743 53 147 13.0 21.0 0.00 0.01 0.01 93 1021.7
20181117081543 53 147 14.0 21.0 0.00 0.01 0.01 93 1021.7
20181117081343 53 148 14.0 21.0 0.00 0.01 0.01 93 1021.7
20181117081143 53 150 14.0 25.0 0.00 0.01 0.01 92 1021.7
20181117080942 53 148 14.0 25.0 0.00 0.01 0.01 92 1021.7
20181117080742 53 149 14.0 25.0 0.00 0.01 0.01 92 1021.7
20181117080543 53 149 14.0 25.0 0.00 0.01 0.01 92 1021.7
20181117080342 53 149 14.0 25.0 0.00 0.01 0.01 92 1021.7
20181117080143 53 149 15.0 25.0 0.00 0.01 0.01 92 1021.7
20181117075943 53 151 15.0 23.0 0.00 0.01 0.01 91 1021.6
20181117075743 53 150 15.0 23.0 0.00 0.01 0.01 91 1021.6
20181117075543 53 150 15.0 23.0 0.00 0.01 0.01 91 1021.6
20181117075343 53 150 15.0 23.0 0.00 0.01 0.01 92 1021.4
20181117075143 53 149 14.0 26.0 0.00 0.01 0.01 92 1021.4
20181117074943 53 147 14.0 26.0 0.00 0.01 0.01 92 1021.3
20181117074743 53 146 14.0 26.0 0.00 0.01 0.01 92 1021.3
20181117074543 53 144 14.0 26.0 0.00 0.01 0.01 92 1021.3
20181117074343 53 145 15.0 26.0 0.00 0.01 0.01 92 1021.2
20181117074143 53 143 16.0 22.0 0.00 0.01 0.01 92 1021.3
20181117073943 53 143 16.0 23.0 0.00 0.01 0.01 92 1021.2
20181117073743 53 143 17.0 23.0 0.00 0.01 0.01 92 1021.2
20181117073543 53 144 17.0 27.0 0.00 0.01 0.01 92 1021.1
20181117073343 53 143 17.0 27.0 0.00 0.01 0.01 92 1021.2
20181117073143 53 144 17.0 27.0 0.00 0.01 0.01 92 1021.1
20181117072943 53 145 17.0 27.0 0.00 0.01 0.01 92 1021.0
20181117072743 53 145 17.0 27.0 0.00 0.01 0.01 92 1021.1
20181117072543 53 144 17.0 26.0 0.00 0.01 0.01 92 1021.1
20181117072343 53 143 17.0 25.0 0.00 0.01 0.01 92 1021.0
20181117072143 53 143 18.0 25.0 0.00 0.01 0.01 92 1021.0
20181117071943 53 142 18.0 25.0 0.00 0.01 0.01 92 1020.9
20181117071744 53 142 18.0 28.0 0.00 0.01 0.01 92 1021.0
20181117071544 53 143 18.0 28.0 0.00 0.01 0.01 92 1021.0
20181117071344 53 143 18.0 28.0 0.00 0.01 0.01 92 1021.0
20181117071144 53 143 17.0 28.0 0.00 0.01 0.01 92 1021.1
20181117070944 53 143 16.0 28.0 0.00 0.01 0.01 92 1021.0
20181117070744 53 142 16.0 26.0 0.00 0.01 0.01 92 1021.1
20181117070543 53 141 15.0 26.0 0.00 0.01 0.01 92 1021.1
20181117070343 53 143 15.0 24.0 0.00 0.01 0.01 93 1021.1
20181117070143 53 144 15.0 24.0 0.00 0.01 0.01 93 1021.0
20181117065943 53 144 15.0 25.0 0.00 0.01 0.01 93 1021.0
20181117065743 53 145 15.0 25.0 0.00 0.01 0.01 93 1021.0
20181117065543 53 144 15.0 25.0 0.00 0.01 0.01 93 1021.0
20181117065343 53 142 16.0 25.0 0.00 0.01 0.01 93 1021.0
20181117065143 53 141 16.0 25.0 0.00 0.01 0.01 93 1021.0
20181117064944 53 140 16.0 22.0 0.00 0.01 0.01 93 1021.0
20181117064744 53 140 16.0 27.0 0.00 0.01 0.01 93 1021.0
20181117064544 53 141 16.0 27.0 0.00 0.01 0.01 93 1021.0
20181117064344 53 142 16.0 27.0 0.00 0.01 0.01 93 1020.9
20181117064144 53 143 16.0 27.0 0.00 0.01 0.01 93 1020.9
20181117063944 53 144 16.0 27.0 0.00 0.01 0.01 93 1020.9
20181117063743 53 145 16.0 25.0 0.00 0.01 0.01 93 1020.9
20181117063543 53 146 15.0 26.0 0.00 0.01 0.01 94 1020.8
20181117063343 53 146 15.0 26.0 0.00 0.01 0.01 94 1020.8
20181117063144 53 147 15.0 26.0 0.00 0.01 0.01 94 1020.9
20181117062944 53 147 15.0 26.0 0.00 0.01 0.01 94 1020.9
20181117062744 53 145 16.0 26.0 0.00 0.01 0.01 94 1020.7
20181117062544 53 144 17.0 24.0 0.00 0.01 0.01 94 1020.6
20181117062344 53 143 17.0 26.0 0.00 0.01 0.01 94 1020.6
20181117062144 53 140 18.0 26.0 0.00 0.01 0.01 94 1020.5
20181117061944 53 139 18.0 27.0 0.00 0.01 0.01 94 1020.5
20181117061744 53 139 18.0 27.0 0.00 0.01 0.01 94 1020.5
20181117061544 53 139 18.0 29.0 0.00 0.01 0.01 94 1020.5
20181117061344 53 140 17.0 29.0 0.00 0.01 0.01 94 1020.4
20181117061144 53 140 17.0 29.0 0.00 0.01 0.01 94 1020.5
20181117060944 53 141 17.0 29.0 0.00 0.01 0.01 94 1020.5
20181117060744 53 141 17.0 29.0 0.00 0.01 0.01 94 1020.5
20181117060544 53 141 17.0 26.0 0.00 0.01 0.01 94 1020.5
20181117060345 53 140 17.0 26.0 0.00 0.01 0.01 94 1020.5
20181117060144 53 140 17.0 26.0 0.00 0.01 0.01 94 1020.5
20181117055944 53 139 16.0 26.0 0.00 0.01 0.01 94 1020.4
20181117055745 53 137 16.0 25.0 0.00 0.01 0.01 94 1020.5
20181117055544 53 137 16.0 25.0 0.00 0.01 0.01 94 1020.4
20181117055344 53 137 15.0 25.0 0.00 0.01 0.01 94 1020.4
20181117055145 53 138 15.0 23.0 0.00 0.01 0.01 94 1020.4
20181117054944 53 139 15.0 23.0 0.00 0.01 0.01 94 1020.4
20181117054744 53 141 16.0 21.0 0.00 0.01 0.01 94 1020.4
20181117054545 53 141 16.0 21.0 0.00 0.01 0.01 94 1020.4
20181117054344 53 141 17.0 23.0 0.00 0.01 0.01 94 1020.4
20181117054145 53 140 17.0 24.0 0.00 0.01 0.01 94 1020.3
20181117053944 53 140 17.0 24.0 0.00 0.01 0.01 94 1020.4
20181117053745 53 139 17.0 24.0 0.00 0.01 0.01 94 1020.3
20181117053545 53 138 17.0 24.0 0.00 0.01 0.01 94 1020.2
20181117053344 53 137 17.0 24.0 0.00 0.01 0.01 94 1020.2
20181117053145 53 136 16.0 24.0 0.00 0.01 0.01 94 1020.2
20181117052944 53 135 16.0 24.0 0.00 0.01 0.01 94 1020.2
20181117052744 53 134 15.0 24.0 0.00 0.01 0.01 94 1020.2
20181117052545 53 133 15.0 24.0 0.00 0.01 0.01 94 1020.2
20181117052345 53 132 14.0 23.0 0.00 0.01 0.01 94 1020.2
20181117052145 53 133 14.0 23.0 0.00 0.01 0.01 94 1020.2
20181117051945 53 133 14.0 23.0 0.00 0.01 0.01 94 1020.2
20181117051746 53 133 13.0 21.0 0.00 0.01 0.01 94 1020.1
20181117051545 53 134 13.0 21.0 0.00 0.01 0.01 94 1020.1
20181117051345 53 134 13.0 20.0 0.00 0.01 0.01 94 1020.1
20181117051145 53 135 13.0 19.0 0.00 0.01 0.01 94 1020.2
20181117050944 53 137 13.0 19.0 0.00 0.01 0.01 94 1020.2
20181117050744 53 139 13.0 19.0 0.00 0.01 0.01 94 1020.2
20181117050545 53 139 13.0 19.0 0.00 0.01 0.01 94 1020.2
20181117050345 53 138 13.0 19.0 0.00 0.01 0.01 94 1020.1
20181117050144 53 136 12.0 19.0 0.00 0.01 0.01 94 1020.2
20181117045944 53 138 12.0 21.0 0.00 0.01 0.01 94 1020.2
20181117045744 53 138 11.0 21.0 0.00 0.01 0.01 94 1020.3
20181117045544 53 139 11.0 21.0 0.00 0.01 0.01 94 1020.2
20181117045345 53 142 10.0 21.0 0.00 0.01 0.01 94 1020.2
20181117045145 53 146 10.0 21.0 0.00 0.01 0.01 94 1020.2
20181117044945 53 145 9.0 20.0 0.00 0.01 0.01 94 1020.4
20181117044745 53 145 9.0 20.0 0.00 0.01 0.01 94 1020.2
20181117044544 53 146 9.0 20.0 0.00 0.01 0.01 94 1020.3
20181117044344 53 146 9.0 20.0 0.00 0.01 0.01 94 1020.3
20181117044145 53 144 9.0 20.0 0.00 0.01 0.01 94 1020.2
20181117043944 53 143 10.0 12.0 0.00 0.01 0.01 94 1020.1
20181117043745 53 141 10.0 15.0 0.00 0.01 0.01 94 1020.2
20181117043545 53 140 11.0 15.0 0.00 0.01 0.01 94 1020.2
20181117043345 53 138 11.0 16.0 0.00 0.01 0.01 94 1020.1
20181117043145 53 139 12.0 16.0 0.00 0.01 0.01 94 1020.2
20181117042945 53 141 12.0 16.0 0.00 0.01 0.01 94 1020.1
20181117042745 53 143 11.0 21.0 0.00 0.01 0.01 94 1020.1
20181117042545 53 145 11.0 21.0 0.00 0.01 0.01 93 1020.0
20181117042345 53 146 10.0 21.0 0.00 0.01 0.01 93 1020.0
20181117042145 53 147 10.0 21.0 0.00 0.01 0.01 93 1020.1
20181117041945 53 147 10.0 21.0 0.00 0.01 0.01 94 1020.0
20181117041745 53 147 9.0 19.0 0.00 0.01 0.01 94 1020.1
20181117041545 53 147 10.0 16.0 0.00 0.01 0.01 94 1020.0
20181117041345 53 147 11.0 16.0 0.00 0.01 0.01 93 1020.0
20181117041145 53 144 11.0 22.0 0.00 0.01 0.01 93 1019.9
20181117040945 53 142 12.0 22.0 0.00 0.01 0.01 93 1020.0
20181117040745 53 141 12.0 22.0 0.00 0.01 0.01 93 1020.1
20181117040545 53 140 12.0 22.0 0.00 0.01 0.01 93 1020.0
20181117040345 53 142 11.0 22.0 0.00 0.01 0.01 93 1020.0
20181117040145 53 142 11.0 21.0 0.00 0.01 0.01 93 1020.0
20181117035945 53 144 10.0 20.0 0.00 0.01 0.01 93 1020.1
20181117035745 53 144 10.0 20.0 0.00 0.01 0.01 93 1020.0
20181117035545 53 146 11.0 16.0 0.00 0.01 0.01 93 1020.1
20181117035346 53 144 11.0 18.0 0.00 0.01 0.01 93 1020.1
20181117035145 53 146 11.0 18.0 0.00 0.01 0.01 93 1020.1
20181117034945 53 143 11.0 18.0 0.00 0.01 0.01 93 1020.1
20181117034745 53 142 11.0 19.0 0.00 0.01 0.01 93 1020.2
20181117034545 53 141 11.0 20.0 0.00 0.01 0.01 93 1020.1
20181117034346 53 143 10.0 20.0 0.00 0.01 0.01 93 1020.1
20181117034145 53 143 10.0 20.0 0.00 0.01 0.01 93 1020.0
20181117033945 53 144 10.0 20.0 0.00 0.01 0.01 93 1020.1
20181117033745 53 145 9.0 20.0 0.00 0.01 0.01 93 1020.0
20181117033545 53 148 9.0 20.0 0.00 0.01 0.01 93 1020.1
20181117033346 53 147 10.0 20.0 0.00 0.01 0.01 93 1020.0
20181117033145 53 145 10.0 20.0 0.00 0.01 0.01 93 1020.1
20181117032945 53 143 11.0 19.0 0.01 0.01 0.01 93 1020.0
20181117032746 53 143 12.0 19.0 0.01 0.01 0.01 93 1020.1
20181117032546 53 138 13.0 23.0 0.01 0.01 0.01 93 1020.1
20181117032345 53 140 13.0 23.0 0.01 0.01 0.01 93 1020.0
20181117032145 53 141 13.0 23.0 0.01 0.01 0.01 93 1020.0
20181117031946 53 142 13.0 23.0 0.01 0.01 0.01 93 1020.1
20181117031746 53 142 13.0 23.0 0.01 0.01 0.01 93 1020.0
20181117031546 53 146 13.0 21.0 0.01 0.01 0.01 93 1020.0
20181117031345 53 146 12.0 21.0 0.01 0.01 0.01 93 1020.1
20181117031146 53 146 12.0 21.0 0.01 0.01 0.01 93 1020.1
20181117030946 53 144 12.0 21.0 0.01 0.01 0.01 93 1020.1
20181117030745 53 145 11.0 21.0 0.01 0.01 0.01 93 1020.1
20181117030545 53 143 11.0 21.0 0.01 0.01 0.01 93 1020.1
20181117030346 53 139 11.0 20.0 0.01 0.01 0.01 94 1020.1
20181117030146 53 138 10.0 20.0 0.01 0.01 0.01 94 1020.1
20181117025945 53 140 10.0 20.0 0.01 0.01 0.01 94 1020.1
20181117025746 53 139 10.0 20.0 0.01 0.01 0.01 94 1020.1
20181117025546 53 139 11.0 20.0 0.01 0.01 0.01 94 1020.2
20181117025345 53 142 11.0 20.0 0.01 0.01 0.01 94 1020.1
20181117025146 53 143 10.0 22.0 0.01 0.01 0.01 94 1020.2
20181117024946 53 145 10.0 22.0 0.01 0.01 0.01 94 1020.2
20181117024746 53 147 10.0 22.0 0.01 0.01 0.01 94 1020.3
20181117024545 53 148 9.0 22.0 0.01 0.01 0.01 94 1020.3
20181117024346 53 149 9.0 22.0 0.01 0.01 0.01 94 1020.4
20181117024146 53 151 9.0 19.0 0.01 0.01 0.01 94 1020.4
20181117023946 53 151 9.0 16.0 0.01 0.01 0.01 94 1020.3
20181117023745 53 150 8.0 16.0 0.01 0.01 0.01 94 1020.5
20181117023546 53 151 8.0 16.0 0.01 0.01 0.01 94 1020.5
20181117023346 53 151 8.0 18.0 0.01 0.01 0.01 94 1020.5
20181117023145 53 151 8.0 21.0 0.00 0.00 0.00 94 1020.5
20181117022946 53 148 8.0 21.0 0.00 0.00 0.00 94 1020.5
20181117022746 53 146 8.0 21.0 0.00 0.00 0.00 94 1020.4
20181117022546 53 144 9.0 21.0 0.00 0.00 0.00 94 1020.5
20181117022346 53 145 9.0 21.0 0.00 0.00 0.00 94 1020.5
20181117022146 53 144 9.0 14.0 0.00 0.00 0.00 94 1020.4
20181117021946 53 145 9.0 14.0 0.00 0.00 0.00 94 1020.4
20181117021746 53 145 10.0 14.0 0.00 0.00 0.00 94 1020.5
20181117021546 53 145 10.0 14.0 0.00 0.00 0.00 94 1020.5
20181117021346 53 143 10.0 16.0 0.00 0.00 0.00 94 1020.5
20181117021146 53 141 10.0 16.0 0.00 0.00 0.00 94 1020.5
20181117020946 53 141 10.0 16.0 0.00 0.00 0.00 94 1020.4
20181117020746 53 144 10.0 16.0 0.00 0.00 0.00 94 1020.4
20181117020546 53 144 10.0 16.0 0.00 0.00 0.00 94 1020.4
20181117020346 53 144 10.0 15.0 0.00 0.00 0.00 94 1020.5
20181117020146 53 143 10.0 14.0 0.00 0.00 0.00 94 1020.4
20181117015946 53 142 10.0 14.0 0.00 0.00 0.00 93 1020.4
20181117015747 53 141 11.0 16.0 0.00 0.00 0.00 93 1020.4
20181117015546 53 140 11.0 16.0 0.00 0.00 0.00 93 1020.5
20181117015346 53 141 11.0 18.0 0.00 0.00 0.00 93 1020.4
20181117015146 53 143 11.0 18.0 0.00 0.00 0.00 93 1020.4
20181117014946 53 145 11.0 18.0 0.00 0.00 0.00 93 1020.4
20181117014746 53 144 11.0 19.0 0.00 0.00 0.00 93 1020.4
20181117014546 53 142 11.0 19.0 0.00 0.00 0.00 93 1020.3
20181117014346 53 144 10.0 19.0 0.00 0.00 0.00 93 1020.3
20181117014146 53 146 10.0 19.0 0.00 0.00 0.00 93 1020.4
20181117013946 53 146 10.0 19.0 0.00 0.00 0.00 93 1020.3
20181117013746 53 149 11.0 15.0 0.00 0.00 0.00 93 1020.3
20181117013546 53 149 11.0 15.0 0.00 0.00 0.00 93 1020.4
20181117013347 53 146 11.0 16.0 0.00 0.00 0.00 93 1020.3
20181117013147 53 142 11.0 16.0 0.00 0.00 0.00 93 1020.4
20181117012946 53 140 12.0 16.0 0.00 0.00 0.00 93 1020.4
20181117012746 53 139 12.0 16.0 0.00 0.00 0.00 93 1020.3
20181117012546 53 141 12.0 19.0 0.00 0.00 0.00 93 1020.3
20181117012346 53 145 13.0 22.0 0.00 0.00 0.00 93 1020.3
20181117012147 53 148 12.0 22.0 0.00 0.00 0.00 93 1020.3
20181117011947 53 150 12.0 22.0 0.00 0.00 0.00 93 1020.3
20181117011746 53 152 11.0 22.0 0.00 0.00 0.00 93 1020.3
20181117011546 54 153 11.0 22.0 0.00 0.00 0.00 93 1020.3
20181117011347 53 150 10.0 20.0 0.00 0.00 0.00 93 1020.3
20181117011147 53 148 9.0 20.0 0.00 0.00 0.00 93 1020.3
20181117010946 53 149 9.0 15.0 0.00 0.00 0.00 93 1020.3
20181117010746 53 148 9.0 15.0 0.00 0.00 0.00 93 1020.3
20181117010546 53 146 10.0 15.0 0.00 0.00 0.00 93 1020.3
20181117010346 53 147 10.0 15.0 0.00 0.00 0.00 93 1020.3
20181117010146 53 149 11.0 15.0 0.00 0.00 0.00 93 1020.4
20181117005946 54 146 11.0 16.0 0.00 0.00 0.00 93 1020.3
20181117005746 54 144 12.0 16.0 0.00 0.00 0.00 92 1020.3
20181117005546 54 144 12.0 21.0 0.00 0.00 0.00 92 1020.3
20181117005346 54 142 12.0 21.0 0.00 0.00 0.00 92 1020.3
20181117005146 54 139 12.0 21.0 0.00 0.00 0.00 92 1020.2
20181117004946 54 138 11.0 21.0 0.00 0.00 0.00 92 1020.3
20181117004747 54 135 11.0 21.0 0.00 0.00 0.00 92 1020.2
20181117004547 54 132 11.0 21.0 0.00 0.00 0.00 92 1020.2
20181117004347 54 133 11.0 20.0 0.00 0.00 0.00 92 1020.2
20181117004147 54 133 11.0 20.0 0.00 0.00 0.00 92 1020.1
20181117003947 54 132 10.0 20.0 0.00 0.00 0.00 92 1020.2
20181117003747 54 135 10.0 20.0 0.00 0.00 0.00 92 1020.2
20181117003547 54 137 10.0 19.0 0.00 0.00 0.00 92 1020.2
20181117003347 54 136 11.0 16.0 0.00 0.00 0.00 92 1020.2
20181117003147 54 138 11.0 16.0 0.00 0.00 0.00 92 1020.2
20181117002946 54 141 11.0 16.0 0.00 0.00 0.00 92 1020.2
20181117002747 54 138 12.0 16.0 0.00 0.00 0.00 92 1020.3
20181117002547 54 139 12.0 21.0 0.00 0.00 0.00 92 1020.2
20181117002347 54 138 13.0 21.0 0.00 0.00 0.00 92 1020.1
20181117002147 54 138 13.0 21.0 0.00 0.00 0.00 92 1020.2
20181117001947 54 137 13.0 21.0 0.00 0.00 0.00 93 1020.1
20181117001747 54 137 13.0 21.0 0.00 0.00 0.00 93 1020.2
20181117001547 54 135 13.0 20.0 0.00 0.00 0.00 93 1020.2
20181117001347 54 136 13.0 22.0 0.00 0.00 0.00 93 1020.1
20181117001147 54 134 12.0 22.0 0.00 0.00 0.00 93 1020.1
20181117000947 54 131 12.0 22.0 0.00 0.00 0.00 93 1020.2
20181117000747 54 131 12.0 22.0 0.00 0.00 0.00 93 1020.1
20181117000547 54 131 12.0 22.0 0.00 0.00 0.00 93 1020.1
20181117000347 54 129 13.0 19.0 0.00 0.00 0.00 93 1020.2
20181117000147 54 131 13.0 19.0 0.00 0.00 0.00 93 1020.1
20181116235947 54 132 14.0 19.0 0.00 0.00 0.00 93 1020.1
20181116235747 54 133 15.0 20.0 0.00 0.00 0.00 93 1020.2
20181116235547 54 133 15.0 21.0 0.00 0.00 0.00 93 1020.1
20181116235347 54 136 15.0 23.0 0.00 0.01 0.00 93 1020.1
20181116235147 54 136 15.0 23.0 0.00 0.01 0.00 93 1020.1
20181116234948 54 136 15.0 23.0 0.00 0.01 0.00 93 1020.1
20181116234747 54 137 15.0 23.0 0.00 0.01 0.00 93 1020.1
20181116234547 54 136 14.0 23.0 0.00 0.01 0.00 93 1020.1
20181116234347 54 135 14.0 23.0 0.00 0.01 0.00 93 1020.0
20181116234147 54 136 14.0 23.0 0.00 0.01 0.00 93 1020.0
20181116233947 54 135 14.0 21.0 0.00 0.01 0.00 93 1020.1
20181116233747 54 133 14.0 23.0 0.00 0.01 0.00 93 1020.0
20181116233547 54 133 14.0 23.0 0.00 0.01 0.00 93 1020.0
20181116233347 54 130 13.0 23.0 0.00 0.01 0.00 93 1020.0
20181116233147 54 127 13.0 23.0 0.00 0.01 0.00 93 1020.0
20181116232947 54 127 12.0 23.0 0.00 0.01 0.00 93 1020.0
20181116232747 54 127 12.0 20.0 0.00 0.01 0.00 93 1020.1
20181116232548 54 130 11.0 20.0 0.00 0.01 0.00 93 1020.1
20181116232348 54 132 11.0 20.0 0.00 0.01 0.00 93 1020.1
20181116232148 54 134 11.0 19.0 0.00 0.01 0.00 93 1020.1
20181116231948 54 136 11.0 19.0 0.00 0.01 0.00 93 1020.1
20181116231747 54 138 11.0 19.0 0.00 0.01 0.00 93 1020.1
20181116231547 54 138 12.0 21.0 0.00 0.01 0.00 93 1020.0
20181116231347 54 138 12.0 21.0 0.00 0.01 0.00 93 1020.1
20181116231147 54 142 13.0 21.0 0.00 0.01 0.00 93 1020.1
20181116230948 54 144 13.0 21.0 0.00 0.01 0.00 93 1020.1
20181116230748 54 145 13.0 21.0 0.00 0.01 0.00 93 1020.0
20181116230548 54 144 13.0 21.0 0.00 0.01 0.00 93 1019.9
20181116230348 54 144 13.0 21.0 0.00 0.01 0.00 93 1020.2
20181116230148 54 142 13.0 21.0 0.00 0.01 0.00 93 1020.0
20181116225948 54 141 13.0 21.0 0.00 0.01 0.00 93 1020.1
20181116225747 54 138 13.0 20.0 0.00 0.01 0.00 93 1020.0
20181116225547 54 138 13.0 20.0 0.00 0.01 0.00 93 1020.1
20181116225347 54 138 13.0 20.0 0.00 0.01 0.00 93 1020.1
20181116225148 54 141 13.0 21.0 0.00 0.01 0.00 93 1020.0
20181116224948 54 140 13.0 22.0 0.00 0.01 0.00 92 1020.1
20181116224748 54 141 13.0 22.0 0.00 0.01 0.00 92 1020.0
20181116224548 54 141 12.0 22.0 0.00 0.01 0.00 92 1020.1
20181116224348 54 139 12.0 22.0 0.00 0.01 0.00 92 1020.1
20181116224147 54 136 12.0 22.0 0.00 0.01 0.00 92 1020.0
20181116223948 54 135 11.0 19.0 0.00 0.01 0.00 92 1020.1
20181116223748 54 132 11.0 18.0 0.00 0.01 0.00 92 1020.1
20181116223548 54 134 11.0 18.0 0.00 0.01 0.00 92 1020.1
20181116223348 54 137 11.0 18.0 0.00 0.01 0.00 92 1020.1
20181116223147 54 137 12.0 18.0 0.00 0.01 0.00 92 1020.1
20181116222949 54 140 12.0 21.0 0.00 0.01 0.00 92 1019.9
20181116222748 54 141 12.0 21.0 0.00 0.01 0.00 91 1020.1
20181116222548 55 141 12.0 21.0 0.00 0.01 0.00 91 1020.0
20181116222348 55 139 12.0 21.0 0.00 0.01 0.00 91 1020.0
20181116222148 55 140 12.0 21.0 0.00 0.01 0.00 91 1020.0
20181116221948 55 141 12.0 20.0 0.00 0.01 0.00 91 1020.0
20181116221747 55 141 12.0 20.0 0.00 0.01 0.00 91 1020.0
20181116221548 55 140 12.0 20.0 0.00 0.01 0.00 91 1019.9
20181116221348 55 139 12.0 20.0 0.00 0.01 0.00 91 1020.0
20181116221148 55 138 12.0 20.0 0.00 0.01 0.00 91 1020.0
20181116220948 55 136 12.0 20.0 0.00 0.01 0.00 91 1020.1
20181116220748 55 134 12.0 20.0 0.00 0.01 0.00 91 1020.1
20181116220548 55 135 12.0 19.0 0.00 0.01 0.00 91 1019.9
20181116220348 55 137 12.0 19.0 0.00 0.01 0.00 91 1020.0
20181116220148 55 136 11.0 20.0 0.00 0.01 0.00 91 1020.0
20181116215949 55 138 11.0 20.0 0.00 0.01 0.00 90 1020.0
20181116215748 55 139 11.0 20.0 0.00 0.01 0.00 90 1019.9
20181116215548 55 138 10.0 20.0 0.00 0.01 0.00 90 1019.9
20181116215348 55 138 11.0 20.0 0.00 0.01 0.00 90 1020.0
20181116215149 55 140 11.0 16.0 0.00 0.01 0.00 90 1020.0
20181116214948 55 138 11.0 20.0 0.00 0.01 0.00 90 1020.0
20181116214748 55 141 11.0 20.0 0.00 0.01 0.00 90 1019.9
20181116214548 55 141 11.0 20.0 0.00 0.01 0.00 90 1019.9
20181116214348 55 139 11.0 20.0 0.00 0.01 0.00 90 1020.0
20181116214148 55 140 11.0 20.0 0.00 0.01 0.00 90 1020.0
20181116213949 55 142 10.0 20.0 0.00 0.01 0.00 90 1019.9
20181116213748 55 142 10.0 19.0 0.00 0.01 0.00 90 1019.9
20181116213548 55 141 11.0 16.0 0.00 0.01 0.00 90 1019.9
20181116213348 55 144 11.0 16.0 0.00 0.01 0.00 90 1019.9
20181116213148 55 141 10.0 16.0 0.00 0.01 0.00 90 1019.9
20181116212949 55 141 10.0 16.0 0.00 0.01 0.00 91 1019.9
20181116212749 55 138 10.0 15.0 0.00 0.01 0.00 91 1019.9
20181116212548 55 138 10.0 16.0 0.00 0.01 0.00 91 1020.0
20181116212348 55 135 11.0 16.0 0.00 0.01 0.00 91 1019.9
20181116212148 55 134 11.0 16.0 0.00 0.01 0.00 91 1019.9
20181116211948 55 134 11.0 16.0 0.00 0.01 0.00 91 1019.9
20181116211749 55 134 11.0 18.0 0.00 0.01 0.00 91 1019.9
20181116211549 55 134 11.0 18.0 0.00 0.01 0.00 91 1019.9
20181116211348 55 136 11.0 18.0 0.00 0.01 0.00 91 1019.9
20181116211148 55 136 11.0 19.0 0.00 0.01 0.00 91 1019.9
20181116210949 55 134 11.0 19.0 0.00 0.01 0.00 91 1019.8
20181116210749 55 135 11.0 19.0 0.00 0.01 0.00 91 1019.8
20181116210548 55 136 11.0 20.0 0.00 0.01 0.00 91 1019.7
20181116210349 55 136 11.0 20.0 0.00 0.01 0.00 91 1019.8
20181116210149 55 136 11.0 20.0 0.00 0.01 0.00 91 1019.8
20181116205949 55 138 11.0 20.0 0.00 0.01 0.00 91 1019.8
20181116205749 55 138 11.0 20.0 0.00 0.01 0.00 91 1019.7
20181116205548 55 136 12.0 18.0 0.00 0.01 0.00 91 1019.7
20181116205349 55 136 11.0 18.0 0.00 0.01 0.00 91 1019.7
20181116205148 55 135 11.0 18.0 0.00 0.01 0.00 91 1019.7
20181116204949 55 133 11.0 18.0 0.00 0.01 0.00 91 1019.7
20181116204750 55 134 11.0 20.0 0.00 0.01 0.00 91 1019.7
20181116204549 55 135 10.0 20.0 0.00 0.01 0.00 91 1019.6
20181116204349 54 133 9.0 20.0 0.00 0.01 0.00 91 1019.7
20181116204149 54 133 8.0 20.0 0.00 0.01 0.00 92 1019.7
20181116203949 54 135 7.0 20.0 0.00 0.01 0.00 92 1019.6
20181116203750 54 136 6.0 20.0 0.00 0.01 0.00 92 1019.6
20181116203549 54 138 6.0 15.0 0.00 0.01 0.00 92 1019.6
20181116203349 54 140 6.0 15.0 0.00 0.01 0.00 93 1019.5
20181116203150 54 145 7.0 13.0 0.00 0.01 0.00 92 1019.6
20181116202949 54 146 8.0 12.0 0.00 0.01 0.00 93 1019.6
20181116202749 54 145 8.0 15.0 0.00 0.01 0.00 93 1019.7
20181116202549 54 146 9.0 15.0 0.00 0.01 0.00 92 1019.6
20181116202349 54 147 9.0 15.0 0.00 0.01 0.00 92 1019.6
20181116202149 54 147 10.0 15.0 0.00 0.01 0.00 92 1019.7
20181116201949 54 147 10.0 15.0 0.00 0.01 0.00 92 1019.6
20181116201749 54 147 11.0 18.0 0.00 0.01 0.00 92 1019.7
20181116201549 54 147 11.0 18.0 0.00 0.01 0.00 92 1019.6
20181116201349 54 147 11.0 18.0 0.00 0.01 0.00 92 1019.6
20181116201149 54 146 11.0 18.0 0.00 0.01 0.00 92 1019.6
20181116200949 54 145 11.0 18.0 0.00 0.01 0.00 92 1019.6
20181116200749 54 146 11.0 16.0 0.00 0.01 0.00 92 1019.7
20181116200550 54 144 12.0 16.0 0.00 0.01 0.00 92 1019.6
20181116200349 54 144 12.0 16.0 0.00 0.01 0.00 92 1019.5
20181116200149 54 145 13.0 16.0 0.00 0.01 0.00 91 1019.6
20181116195949 54 147 13.0 21.0 0.00 0.01 0.00 91 1019.6
20181116195749 54 150 13.0 23.0 0.00 0.01 0.00 91 1019.6
20181116195549 54 152 13.0 23.0 0.00 0.01 0.00 91 1019.6
20181116195349 54 153 12.0 23.0 0.00 0.01 0.00 91 1019.6
20181116195149 54 153 12.0 23.0 0.00 0.01 0.00 91 1019.6
20181116194949 54 152 11.0 23.0 0.00 0.01 0.00 91 1019.5
20181116194748 54 150 10.0 23.0 0.00 0.01 0.00 91 1019.6
20181116194549 54 148 10.0 23.0 0.00 0.01 0.00 91 1019.6
20181116194349 54 146 10.0 20.0 0.00 0.01 0.00 91 1019.6
20181116194148 54 146 9.0 16.0 0.00 0.01 0.00 91 1019.7
20181116193950 54 147 9.0 16.0 0.00 0.01 0.00 91 1019.7
20181116193749 54 147 9.0 14.0 0.00 0.01 0.00 91 1019.7
20181116193549 54 147 8.0 14.0 0.00 0.01 0.00 91 1019.7
20181116193349 54 145 8.0 16.0 0.00 0.01 0.00 91 1019.7
20181116193149 54 139 7.0 16.0 0.00 0.01 0.00 91 1019.7
20181116192949 54 137 7.0 16.0 0.00 0.01 0.00 91 1019.8
20181116192750 54 135 8.0 16.0 0.00 0.01 0.00 90 1019.7
20181116192550 54 133 8.0 16.0 0.00 0.01 0.00 91 1019.7
20181116192349 54 131 9.0 13.0 0.00 0.01 0.00 91 1019.7
20181116192149 54 139 9.0 13.0 0.00 0.01 0.00 90 1019.8
20181116191949 54 141 10.0 19.0 0.00 0.01 0.00 90 1019.7
20181116191749 54 142 10.0 19.0 0.00 0.01 0.00 91 1019.7
20181116191550 54 143 10.0 19.0 0.00 0.01 0.00 91 1019.7
20181116191349 54 147 10.0 19.0 0.00 0.01 0.00 91 1019.7
20181116191149 54 146 10.0 19.0 0.00 0.01 0.00 90 1019.7
20181116190950 54 144 11.0 19.0 0.00 0.01 0.00 90 1019.7
20181116190750 54 145 12.0 19.0 0.00 0.01 0.00 91 1019.7
20181116190550 54 146 12.0 22.0 0.00 0.01 0.00 91 1019.7
20181116190349 54 146 12.0 22.0 0.00 0.01 0.00 91 1019.8
20181116190150 54 149 12.0 22.0 0.00 0.01 0.00 90 1019.7
20181116185950 54 151 12.0 25.0 0.00 0.01 0.00 91 1019.8
20181116185750 54 150 12.0 25.0 0.00 0.01 0.00 91 1019.8
20181116185549 54 149 12.0 25.0 0.00 0.01 0.00 90 1019.8
20181116185350 54 149 12.0 25.0 0.00 0.01 0.00 90 1019.8
20181116185150 54 146 11.0 25.0 0.00 0.01 0.00 90 1019.8
20181116184950 54 144 12.0 21.0 0.00 0.01 0.00 91 1019.8
20181116184750 54 142 12.0 22.0 0.00 0.01 0.00 91 1019.8
20181116184550 54 142 12.0 22.0 0.00 0.01 0.00 91 1019.7
20181116184350 54 139 12.0 22.0 0.00 0.01 0.00 91 1019.7
20181116184150 54 140 13.0 22.0 0.00 0.01 0.00 91 1019.7
20181116183950 54 140 13.0 22.0 0.00 0.01 0.00 91 1019.7
20181116183750 54 139 13.0 20.0 0.00 0.01 0.00 91 1019.7
20181116183550 54 138 14.0 20.0 0.00 0.01 0.00 91 1019.7
20181116183350 54 140 14.0 21.0 0.00 0.01 0.00 91 1019.7
20181116183150 54 138 14.0 23.0 0.00 0.01 0.00 91 1019.7
20181116182950 54 140 15.0 23.0 0.00 0.01 0.00 91 1019.7
20181116182750 54 141 15.0 23.0 0.00 0.01 0.00 91 1019.7
20181116182550 54 142 15.0 24.0 0.00 0.01 0.00 91 1019.7
20181116182350 54 143 15.0 24.0 0.00 0.01 0.00 91 1019.7
20181116182149 54 145 15.0 24.0 0.00 0.01 0.00 91 1019.7
20181116181949 54 145 15.0 24.0 0.00 0.01 0.00 91 1019.7
20181116181749 54 146 15.0 25.0 0.00 0.01 0.00 91 1019.6
20181116181549 54 147 15.0 25.0 0.00 0.01 0.00 91 1019.6
20181116181350 54 147 15.0 25.0 0.00 0.01 0.00 91 1019.6
20181116181150 54 147 15.0 25.0 0.00 0.01 0.00 91 1019.5
20181116180950 54 147 14.0 25.0 0.00 0.01 0.00 91 1019.5
20181116180750 54 147 14.0 26.0 0.00 0.01 0.00 91 1019.5
20181116180550 54 148 14.0 26.0 0.00 0.01 0.00 91 1019.5
20181116180350 54 147 13.0 26.0 0.00 0.01 0.00 92 1019.5
20181116180150 54 148 12.0 26.0 0.00 0.01 0.00 92 1019.5
20181116175950 54 146 12.0 26.0 0.00 0.01 0.00 92 1019.6
20181116175750 54 145 11.0 26.0 0.00 0.01 0.00 92 1019.6
20181116175550 54 145 10.0 26.0 0.00 0.01 0.00 92 1019.6
20181116175350 54 142 10.0 18.0 0.00 0.01 0.00 92 1019.4
20181116175150 54 141 11.0 18.0 0.00 0.01 0.00 92 1019.6
20181116174950 54 143 11.0 18.0 0.00 0.01 0.00 92 1019.6
20181116174750 54 143 12.0 18.0 0.00 0.01 0.00 92 1019.6
20181116174550 54 145 12.0 19.0 0.00 0.01 0.00 92 1019.6
20181116174349 54 147 13.0 19.0 0.00 0.01 0.00 92 1019.5
20181116174150 54 149 13.0 19.0 0.00 0.01 0.00 92 1019.5
20181116173950 54 149 13.0 19.0 0.00 0.01 0.00 92 1019.5
20181116173750 54 149 13.0 19.0 0.00 0.01 0.00 92 1019.5
20181116173550 54 148 13.0 21.0 0.00 0.01 0.00 91 1019.6
20181116173350 54 148 12.0 21.0 0.00 0.01 0.00 91 1019.7
20181116173150 54 148 12.0 21.0 0.00 0.01 0.00 91 1019.5
20181116172950 54 147 11.0 21.0 0.00 0.01 0.00 91 1019.6
20181116172750 54 147 11.0 21.0 0.00 0.01 0.00 91 1019.5
20181116172550 54 146 11.0 19.0 0.00 0.01 0.00 91 1019.5
20181116172350 54 146 12.0 18.0 0.00 0.01 0.00 91 1019.5
20181116172150 54 146 13.0 18.0 0.00 0.01 0.00 91 1019.6
20181116171950 54 146 14.0 16.0 0.00 0.01 0.00 91 1019.5
20181116171750 54 147 15.0 22.0 0.00 0.01 0.00 91 1019.5
20181116171550 54 147 16.0 24.0 0.00 0.01 0.00 91 1019.5
20181116171350 54 145 17.0 24.0 0.00 0.01 0.00 91 1019.4
20181116171150 54 145 18.0 25.0 0.00 0.01 0.00 91 1019.4
20181116170950 54 144 18.0 25.0 0.00 0.01 0.00 90 1019.4
20181116170750 54 143 18.0 26.0 0.00 0.01 0.00 91 1019.3
20181116170550 54 142 17.0 26.0 0.00 0.01 0.00 91 1019.3
20181116170350 54 143 16.0 26.0 0.00 0.01 0.00 91 1019.3
20181116170151 54 142 15.0 26.0 0.00 0.01 0.00 90 1019.3
20181116165951 54 143 14.0 26.0 0.00 0.01 0.00 91 1019.3
20181116165751 54 143 14.0 26.0 0.00 0.01 0.00 91 1019.3
20181116165551 54 144 13.0 22.0 0.00 0.01 0.00 91 1019.3
20181116165351 54 145 13.0 21.0 0.00 0.01 0.00 91 1019.2
20181116165151 54 145 13.0 21.0 0.00 0.01 0.00 91 1019.2
20181116164951 54 145 13.0 21.0 0.00 0.01 0.00 91 1019.2
20181116164751 54 149 13.0 21.0 0.00 0.01 0.00 92 1019.2
20181116164551 54 149 12.0 21.0 0.00 0.01 0.00 92 1019.2
20181116164351 54 147 12.0 21.0 0.00 0.01 0.00 92 1019.2
20181116164151 54 146 12.0 21.0 0.00 0.01 0.00 91 1019.2
20181116163951 54 147 12.0 21.0 0.00 0.01 0.00 91 1019.2
20181116163751 54 147 11.0 21.0 0.00 0.01 0.00 92 1019.2
20181116163551 54 146 11.0 21.0 0.00 0.01 0.00 92 1019.2
20181116163350 54 148 11.0 20.0 0.00 0.01 0.00 92 1019.2
20181116163150 54 149 11.0 20.0 0.00 0.01 0.00 92 1019.1
20181116162950 54 150 10.0 21.0 0.00 0.01 0.00 92 1019.1
20181116162750 54 149 10.0 21.0 0.00 0.01 0.00 91 1019.1
20181116162550 54 149 11.0 21.0 0.00 0.01 0.00 91 1019.2
20181116162350 54 150 11.0 21.0 0.00 0.01 0.00 92 1019.2
20181116162150 54 149 12.0 21.0 0.00 0.01 0.00 92 1019.1
20181116161950 54 147 12.0 21.0 0.00 0.01 0.00 91 1019.2
20181116161750 54 148 12.0 21.0 0.00 0.01 0.00 91 1019.2
20181116161550 54 148 12.0 21.0 0.00 0.01 0.00 91 1019.2
20181116161350 54 149 13.0 21.0 0.00 0.01 0.00 91 1019.2
20181116161151 54 152 13.0 21.0 0.00 0.01 0.00 91 1019.2
20181116160951 54 153 13.0 20.0 0.00 0.01 0.00 91 1019.2
20181116160751 54 151 14.0 20.0 0.00 0.01 0.00 91 1019.2
20181116160551 54 151 14.0 24.0 0.00 0.01 0.00 91 1019.3
20181116160351 54 151 14.0 24.0 0.00 0.01 0.00 91 1019.3
20181116160151 54 149 14.0 24.0 0.00 0.01 0.00 91 1019.3
20181116155951 54 149 14.0 24.0 0.00 0.01 0.00 91 1019.3
20181116155751 54 149 13.0 24.0 0.00 0.01 0.00 91 1019.3
20181116155551 54 148 13.0 24.0 0.00 0.01 0.00 91 1019.2
20181116155351 54 148 13.0 24.0 0.00 0.01 0.00 91 1019.3
20181116155151 54 147 12.0 24.0 0.00 0.01 0.00 91 1019.3
20181116154951 54 145 12.0 20.0 0.00 0.01 0.00 91 1019.2
20181116154751 54 145 12.0 19.0 0.00 0.01 0.00 91 1019.2
20181116154551 54 146 12.0 19.0 0.00 0.01 0.00 91 1019.2
20181116154351 54 144 12.0 22.0 0.00 0.01 0.00 91 1019.2
20181116154151 54 146 13.0 22.0 0.00 0.01 0.00 91 1019.1
20181116153951 54 147 13.0 22.0 0.00 0.01 0.00 91 1019.1
20181116153751 54 150 14.0 22.0 0.00 0.01 0.00 91 1019.1
20181116153551 54 150 14.0 22.0 0.00 0.01 0.00 91 1019.2
20181116153351 54 150 14.0 22.0 0.00 0.01 0.00 91 1019.0
20181116153152 54 151 14.0 26.0 0.00 0.01 0.00 91 1019.0
20181116152951 54 150 14.0 26.0 0.00 0.01 0.00 91 1019.0
20181116152751 54 150 14.0 26.0 0.00 0.01 0.00 90 1019.1
20181116152552 54 151 14.0 26.0 0.00 0.01 0.00 90 1019.0
20181116152351 54 150 14.0 26.0 0.00 0.01 0.00 90 1018.9
20181116152152 54 151 14.0 24.0 0.00 0.01 0.00 90 1018.9
20181116151951 54 151 14.0 23.0 0.00 0.01 0.00 90 1019.0
20181116151751 54 150 14.0 23.0 0.00 0.01 0.00 90 1018.9
20181116151551 54 151 13.0 23.0 0.00 0.01 0.00 90 1018.9
20181116151351 54 152 13.0 23.0 0.00 0.01 0.00 90 1019.0
20181116151151 54 152 12.0 23.0 0.00 0.01 0.00 90 1019.0
20181116150951 54 153 12.0 23.0 0.00 0.01 0.00 90 1019.0
20181116150751 54 153 12.0 19.0 0.00 0.01 0.00 90 1019.0
20181116150551 53 153 12.0 19.0 0.00 0.01 0.00 90 1019.1
20181116150351 53 154 11.0 22.0 0.00 0.01 0.00 90 1019.1
20181116150151 53 155 11.0 22.0 0.00 0.01 0.00 90 1019.1
20181116145951 54 155 11.0 22.0 0.00 0.01 0.00 90 1019.1
20181116145751 53 156 12.0 22.0 0.00 0.01 0.00 90 1019.0
20181116145552 53 154 12.0 22.0 0.00 0.01 0.00 90 1019.1
20181116145351 53 154 13.0 20.0 0.00 0.01 0.00 90 1019.0
20181116145151 53 153 13.0 20.0 0.00 0.01 0.00 90 1019.0
20181116144951 53 155 13.0 20.0 0.00 0.01 0.00 90 1019.1
20181116144752 53 153 13.0 20.0 0.00 0.01 0.00 90 1019.1
20181116144552 53 155 12.0 20.0 0.00 0.01 0.00 90 1019.1
20181116144352 53 155 12.0 19.0 0.00 0.01 0.00 90 1019.0
20181116144152 53 155 12.0 19.0 0.00 0.01 0.00 90 1018.9
20181116143951 53 156 13.0 18.0 0.00 0.01 0.00 90 1019.1
20181116143751 53 158 14.0 21.0 0.00 0.01 0.00 90 1019.0
20181116143551 53 158 14.0 21.0 0.00 0.01 0.00 90 1019.0
20181116143351 53 160 14.0 24.0 0.00 0.01 0.00 90 1019.1
20181116143151 53 160 15.0 24.0 0.00 0.01 0.00 89 1019.0
20181116142951 53 159 14.0 24.0 0.00 0.01 0.00 89 1019.0
20181116142751 53 158 14.0 24.0 0.00 0.01 0.00 89 1019.0
20181116142551 53 158 15.0 24.0 0.00 0.01 0.00 89 1019.1
20181116142351 53 157 15.0 23.0 0.00 0.01 0.00 89 1019.0
20181116142151 53 157 16.0 23.0 0.00 0.01 0.00 89 1019.1
20181116141952 54 157 16.0 22.0 0.00 0.01 0.00 89 1019.0
20181116141752 54 159 16.0 22.0 0.00 0.01 0.00 89 1019.0
20181116141552 54 158 16.0 26.0 0.00 0.01 0.00 89 1019.0
20181116141352 54 159 16.0 26.0 0.00 0.01 0.00 89 1018.9
20181116141152 54 159 16.0 26.0 0.00 0.01 0.00 89 1019.0
20181116140952 54 158 16.0 26.0 0.00 0.01 0.00 88 1019.1
20181116140752 54 157 16.0 26.0 0.00 0.01 0.00 89 1019.2
20181116140552 54 156 17.0 23.0 0.00 0.01 0.00 88 1019.1
20181116140352 54 154 17.0 23.0 0.00 0.01 0.00 89 1019.0
20181116140151 54 153 18.0 26.0 0.00 0.01 0.00 89 1019.0
20181116135951 54 152 18.0 26.0 0.00 0.02 0.00 89 1019.1
20181116135752 54 152 17.0 26.0 0.00 0.02 0.00 89 1019.0
20181116135552 54 153 17.0 26.0 0.00 0.02 0.00 88 1019.1
20181116135352 54 154 16.0 26.0 0.00 0.02 0.00 88 1019.1
20181116135152 54 154 15.0 26.0 0.00 0.02 0.00 88 1019.0
20181116134952 54 156 14.0 26.0 0.00 0.02 0.00 88 1019.1
20181116134752 54 157 13.0 26.0 0.00 0.02 0.00 88 1019.1
20181116134552 54 158 13.0 25.0 0.00 0.02 0.00 88 1019.1
20181116134352 54 158 14.0 25.0 0.00 0.02 0.00 88 1019.0
20181116134152 54 158 14.0 25.0 0.00 0.02 0.00 88 1019.0
20181116133952 54 158 15.0 22.0 0.00 0.02 0.00 88 1018.9
20181116133752 54 157 16.0 23.0 0.00 0.02 0.00 88 1019.0
20181116133552 54 156 17.0 23.0 0.00 0.02 0.00 88 1019.0
20181116133352 54 156 17.0 23.0 0.00 0.02 0.00 87 1018.9
20181116133152 54 157 18.0 24.0 0.00 0.02 0.00 87 1019.0
20181116132953 54 156 19.0 26.0 0.00 0.02 0.00 87 1018.9
20181116132752 54 157 19.0 26.0 0.00 0.02 0.00 87 1019.0
20181116132552 54 158 19.0 26.0 0.00 0.02 0.00 87 1019.0
20181116132352 54 159 19.0 27.0 0.00 0.02 0.00 87 1019.0
20181116132152 54 159 19.0 27.0 0.00 0.02 0.00 86 1019.0
20181116131952 54 159 19.0 27.0 0.00 0.02 0.00 87 1018.9
20181116131752 54 158 20.0 28.0 0.00 0.02 0.00 87 1018.9
20181116131552 54 157 21.0 31.0 0.00 0.02 0.00 87 1018.8
20181116131352 54 157 21.0 31.0 0.00 0.02 0.00 87 1018.8
20181116131152 54 157 22.0 31.0 0.00 0.02 0.00 88 1018.9
20181116130952 54 158 22.0 31.0 0.00 0.02 0.00 87 1018.7
20181116130752 54 159 22.0 31.0 0.00 0.02 0.00 87 1018.8
20181116130552 54 159 22.0 31.0 0.00 0.02 0.00 87 1018.8
20181116130352 54 160 22.0 31.0 0.00 0.02 0.00 87 1018.9
20181116130152 54 160 23.0 31.0 0.00 0.02 0.00 87 1018.9
20181116125953 54 160 23.0 31.0 0.00 0.02 0.00 87 1019.0
20181116125753 54 159 22.0 34.0 0.00 0.02 0.00 88 1018.9
20181116125552 54 159 22.0 34.0 0.00 0.02 0.00 87 1018.9
20181116125353 54 158 22.0 34.0 0.00 0.02 0.00 88 1018.8
20181116125152 54 158 21.0 34.0 0.00 0.02 0.00 88 1018.9
20181116124952 54 159 20.0 34.0 0.00 0.02 0.00 88 1018.9
20181116124752 54 159 19.0 29.0 0.00 0.02 0.00 89 1018.8
20181116124552 54 160 18.0 29.0 0.00 0.02 0.00 88 1018.6
20181116124352 54 160 17.0 29.0 0.00 0.02 0.00 88 1018.6
20181116124153 54 161 17.0 28.0 0.00 0.02 0.00 89 1018.7
20181116123953 54 160 16.0 27.0 0.00 0.02 0.00 89 1018.7
20181116123753 54 159 16.0 25.0 0.00 0.02 0.00 89 1018.8
20181116123553 54 159 15.0 24.0 0.00 0.02 0.00 89 1018.8
20181116123353 54 160 15.0 24.0 0.00 0.02 0.00 89 1018.8
20181116123153 54 161 15.0 24.0 0.00 0.02 0.00 90 1018.8
20181116122953 54 163 15.0 25.0 0.00 0.02 0.00 90 1018.8
20181116122753 54 164 15.0 25.0 0.00 0.02 0.00 90 1018.8
20181116122552 54 164 14.0 25.0 0.00 0.02 0.00 89 1018.9
20181116122152 54 163 14.0 25.0 0.00 0.02 0.00 90 1018.7
20181116121952 54 162 15.0 24.0 0.00 0.02 0.00 90 1018.8
20181116121752 54 164 15.0 24.0 0.00 0.02 0.00 89 1018.9
20181116121553 54 165 15.0 24.0 0.00 0.02 0.00 89 1018.9
20181116121353 54 166 16.0 24.0 0.00 0.02 0.00 89 1018.7
20181116121153 54 165 16.0 26.0 0.00 0.02 0.00 90 1018.6
20181116120953 54 166 17.0 26.0 0.00 0.02 0.00 90 1018.6
20181116120753 54 163 17.0 26.0 0.00 0.02 0.00 90 1018.8
20181116120553 54 161 17.0 27.0 0.00 0.02 0.00 90 1018.8
20181116120353 54 160 17.0 27.0 0.00 0.02 0.00 90 1018.7
20181116120153 54 158 17.0 27.0 0.00 0.02 0.00 90 1019.0
20181116115954 54 158 17.0 27.0 0.00 0.02 0.00 90 1019.0
20181116115753 54 159 18.0 27.0 0.00 0.02 0.00 90 1019.0
20181116115553 54 159 18.0 26.0 0.00 0.02 0.00 90 1019.0
20181116115353 54 159 18.0 26.0 0.00 0.02 0.00 90 1019.0
20181116115153 54 160 17.0 26.0 0.00 0.02 0.00 91 1019.0
20181116114953 54 160 17.0 26.0 0.00 0.02 0.00 91 1019.0
20181116114753 54 160 17.0 26.0 0.00 0.02 0.00 91 1018.9
20181116114553 54 160 18.0 26.0 0.00 0.02 0.00 91 1019.0
20181116114354 54 160 18.0 26.0 0.00 0.02 0.00 91 1019.0
20181116114154 54 162 19.0 26.0 0.00 0.02 0.00 91 1019.0
20181116113953 54 162 20.0 30.0 0.00 0.02 0.00 91 1019.0
20181116113753 54 161 20.0 30.0 0.00 0.02 0.00 91 1018.9
20181116113553 54 160 20.0 30.0 0.00 0.02 0.00 90 1019.0
20181116113353 54 160 20.0 30.0 0.00 0.02 0.00 90 1019.0
20181116113154 54 158 20.0 30.0 0.00 0.02 0.00 90 1019.0
20181116112953 54 158 19.0 28.0 0.00 0.02 0.00 90 1019.0
20181116112754 54 158 19.0 28.0 0.00 0.02 0.00 90 1019.0
20181116112554 54 159 19.0 28.0 0.00 0.02 0.00 90 1018.9
20181116112354 54 157 18.0 28.0 0.00 0.02 0.00 91 1019.1
20181116112154 54 156 18.0 28.0 0.00 0.02 0.00 91 1019.0
20181116111954 54 157 17.0 28.0 0.00 0.02 0.00 91 1019.0
20181116111754 54 156 16.0 28.0 0.00 0.02 0.00 91 1019.1
20181116111554 54 157 16.0 28.0 0.00 0.02 0.00 91 1019.0
20181116111354 54 159 16.0 27.0 0.00 0.02 0.00 91 1019.3
20181116111154 54 161 16.0 27.0 0.00 0.02 0.00 91 1019.3
20181116110954 53 158 16.0 23.0 0.00 0.02 0.00 91 1019.2
20181116110754 53 158 16.0 23.0 0.00 0.02 0.00 92 1019.3
20181116110554 53 155 16.0 23.0 0.00 0.02 0.00 92 1019.2
20181116110354 53 153 16.0 23.0 0.00 0.02 0.00 92 1019.4
20181116110153 53 152 16.0 23.0 0.00 0.02 0.00 92 1019.3
20181116105954 53 152 16.0 23.0 0.00 0.02 0.00 92 1019.3
20181116105754 53 152 16.0 26.0 0.00 0.02 0.00 92 1019.1
20181116105554 53 153 16.0 26.0 0.00 0.02 0.00 92 1019.1
20181116105354 53 153 16.0 26.0 0.00 0.02 0.00 92 1019.1
20181116105154 53 152 16.0 26.0 0.00 0.02 0.00 92 1019.1
20181116104954 53 153 15.0 26.0 0.00 0.02 0.00 92 1019.3
20181116104753 53 154 15.0 25.0 0.00 0.02 0.00 92 1019.3
20181116104554 53 155 15.0 23.0 0.00 0.02 0.00 91 1019.3
20181116104354 53 156 14.0 23.0 0.00 0.02 0.00 91 1019.1
20181116104154 53 157 14.0 23.0 0.00 0.02 0.00 91 1019.0
20181116103953 53 158 14.0 23.0 0.00 0.02 0.00 91 1019.1